Regional Weather Roundup
Issued by NWS Austin/San Antonio, TX

Current Version | Previous Version | Text Only | Print | Product List | Glossary On
Versions: 1 2 3 4 5 6 7 8 9 10 11 12 13 14 15 16 17 18 19 20 21 22 23 24 25 26 27 28 29 30 31 32 33 34 35 36 37 38 39 40 41 42 43 44 45 46 47 48 49 50
250
ASUS44 KEWX 130610
RWREWX
SOUTH TEXAS REGIONAL WEATHER ROUNDUP
NATIONAL WEATHER SERVICE AUSTIN/SAN ANTONIO TX
100 AM CDT SUN JUN 13 2021

NOTE: "FAIR" INDICATED FEW OR NO CLOUDS BELOW 12,000 FEET WITH NO
SIGNIFICANT WEATHER AND/OR OBSTRUCTIONS TO VISIBILITY.

* - THESE STATIONS ARE NOT NWS OR FAA STATIONS...AND ARE NOT SUBJECT
    TO NWS AND FAA QUALITY CONTROL.

TXZ171-172-183>190-130700-
TEXAS HILL COUNTRY AND EDWARDS PLATEAU

CITY           SKY/WX    TMP DP  RH WIND       PRES   REMARKS
JUNCTION       CLEAR     78  68  71 CALM      30.01F
6HR MIN TEMP:  78; 6HR MAX TEMP:  93;

*LLANO         CLEAR     75  70  83 CALM      29.95F
BURNET         CLEAR     77  70  79 W3        29.98F
6HR MIN TEMP:  76; 6HR MAX TEMP:  89;

*HORSESHOE BAY CLEAR     78  70  78 S3        29.97F
6HR MIN TEMP:  77; 6HR MAX TEMP:  91;

*LAGO VISTA    CLEAR     79  71  75 SW3       29.97F
6HR MIN TEMP:  79; 6HR MAX TEMP:  91;

*KERRVILLE     CLEAR     74  69  86 CALM      30.01S
6HR MIN TEMP:  74; 6HR MAX TEMP:  89;

*FREDERICKSBRG CLEAR     72  72 100 CALM      30.01S
6HR MIN TEMP:  72; 6HR MAX TEMP:  87;

*ROCKSPRINGS     N/A     75  68  78 MISG      30.07F
*BOERNE        CLEAR     73  72  94 S7        29.99F
*CASTROVILLE   CLEAR     79  74  85 S5        29.98S
HONDO          CLEAR     78  73  84 S8        29.97S
6HR MIN TEMP:  78; 6HR MAX TEMP:  90;

*UVALDE        CLEAR     76  75  98 SE3       29.99S
6HR MIN TEMP:  76; 6HR MAX TEMP:  91;

DEL RIO        CLEAR     87  71  58 E15G22    29.93F HX  93
6HR MIN TEMP:  87; 6HR MAX TEMP: 101;

*LAUGHLIN AFB  CLEAR     83  71  65 E14       29.94F
6HR MIN TEMP:  83; 6HR MAX TEMP:  97;

*SPOFFORD      CLEAR     81  71  72 E9        29.89S
6HR MIN TEMP:  81; 6HR MAX TEMP:  97;

*EAGLE PASS    CLEAR     82  70  65 E8G14     29.93S
CARRIZO SPRGS  CLEAR    N/A N/A N/A SE9       29.93S
$$

TXZ173-191>194-202-209-217>225-228-130700-
CENTRAL AND SOUTH CENTRAL TEXAS

CITY           SKY/WX    TMP DP  RH WIND       PRES   REMARKS
GEORGETOWN     CLEAR     77  71  82 NE3       29.96S
6HR MIN TEMP:  76; 6HR MAX TEMP:  89;

*TAYLOR        CLEAR     75  75 100 SE3       29.94R
6HR MIN TEMP:  74; 6HR MAX TEMP:  89;

AUSTIN/BERGSTM PTCLDY    77  74  90 S7        29.93S
6HR MIN TEMP:  75; 6HR MAX TEMP:  90;

AUSTIN/MABRY   CLEAR     79  71  76 SW3       29.94F
6HR MIN TEMP:  79; 6HR MAX TEMP:  91;

*PFLUGERVILLE  CLEAR     77  73  88 CALM      29.93R
SAN MARCOS     CLEAR     78  77  96 SW5       29.95F
6HR MIN TEMP:  77; 6HR MAX TEMP:  91;

NEW BRAUNFELS  CLEAR     78  74  87 SW8       29.93F
6HR MIN TEMP:  77; 6HR MAX TEMP:  92;

*RANDOLPH AFB  CLEAR     78  74  85 S8        29.94F
6HR MIN TEMP:  78; 6HR MAX TEMP:  90;

*SEGUIN        CLEAR     77  73  88 SW7       29.98F
6HR MIN TEMP:  77; 6HR MAX TEMP:  90;

SAN ANTONIO    PTCLDY    80  72  76 S10       29.96F
6HR MIN TEMP:  80; 6HR MAX TEMP:  89;

STINSON FIELD  CLEAR     81  72  74 S6        29.94S
6HR MIN TEMP:  81; 6HR MAX TEMP:  94;

*KELLY FIELD   CLEAR     77  73  86 S7        29.94F
6HR MIN TEMP:  77; 6HR MAX TEMP:  89;

*PLEASANTON    CLEAR     77  73  86 CALM      29.96S
6HR MIN TEMP:  77; 6HR MAX TEMP:  93;

*KENEDY        CLEAR     77  74  92 S3        29.95F
6HR MIN TEMP:  77; 6HR MAX TEMP:  90;

*LA GRANGE     PTCLDY    80  78  92 SW5       29.92R
6HR MIN TEMP:  80; 6HR MAX TEMP:  93;

*GIDDINGS      PTCLDY    79  75  86 SW3       29.94S
6HR MIN TEMP:  78; 6HR MAX TEMP:  91;

*GONZALES      PTCLDY    79  76  90 S6        29.93F
6HR MIN TEMP:  79; 6HR MAX TEMP:  92;

$$

TXZ163>164-176>182-195>201-210>213-226-227-235-130700-
SOUTHEAST TEXAS

CITY           SKY/WX    TMP DP  RH WIND       PRES   REMARKS
COLLEGE STN    PTCLDY    80  73  79 S3        29.93S
6HR MIN TEMP:  80; 6HR MAX TEMP:  91;

*BRYAN         PTCLDY    77  77 100 CALM      29.95S
6HR MIN TEMP:  76; 6HR MAX TEMP:  88;

*CALDWELL      PTCLDY    77  75  92 CALM      29.95R
6HR MIN TEMP:  77; 6HR MAX TEMP:  90;

*CROCKETT      PTCLDY    75  75 100 CALM      29.93S
*BRENHAM       PTCLDY    82  77  86 SW3       29.94S
6HR MIN TEMP:  81; 6HR MAX TEMP:  91;

HUNTSVILLE     MOCLDY    83  81  94 CALM      29.94R HX  97
6HR MIN TEMP:  81; 6HR MAX TEMP:  90;

CONROE         CLOUDY    83  75  77 W7        29.94S HX  90
6HR MIN TEMP:  79; 6HR MAX TEMP:  91;

HOUSTON BUSH   CLOUDY    84  74  71 W5        29.92F HX  91
6HR MIN TEMP:  84; 6HR MAX TEMP:  94;

HOUSTON HOBBY  MOCLDY    82  74  76 W6        29.92S
6HR MIN TEMP:  81; 6HR MAX TEMP:  92;

*HOUSTON SW AP MOCLDY    78  76  94 CALM      29.94S
6HR MIN TEMP:  78; 6HR MAX TEMP:  89;

PEARLAND       MOCLDY    81  75  82 CALM      29.94S
6HR MIN TEMP:  80; 6HR MAX TEMP:  90;

HOUSTON HOOKS  MOCLDY    83  75  77 SW6       29.93F HX  90
6HR MIN TEMP:  81; 6HR MAX TEMP:  92;

ELLINGTON FLD  PTCLDY    81  75  83 SW5       29.92F
SUGAR LAND     MOCLDY    81  75  82 SW3       29.92F
6HR MIN TEMP:  81; 6HR MAX TEMP:  93;

*HOUSTON EXEC    N/A     79  77  94 S3        29.94S
*CLEVELAND MUN MOCLDY    79  78  97 CALM      29.93F
6HR MIN TEMP:  79; 6HR MAX TEMP:  87;

*WHARTON       CLEAR     76  73  88 S3        29.93F
6HR MIN TEMP:  76; 6HR MAX TEMP:  87;

*COLUMBUS      FAIR      78  75  93 SW3       29.93F
6HR MIN TEMP:  77; 6HR MAX TEMP:  92;

*EAGLE LAKE    NOT AVBL
$$

TXZ214>216-236>238-130700-
THE UPPER TEXAS COAST

CITY           SKY/WX    TMP DP  RH WIND       PRES   REMARKS
*ORANGE        PTCLDY    81  76  84 CALM      29.94F
6HR MIN TEMP:  81; 6HR MAX TEMP:  89;

PORT ARTHUR    PTCLDY    76  76 100 CALM      29.92F
6HR MIN TEMP:  76; 6HR MAX TEMP:  87;

GALVESTON      PTCLDY    83  76  79 SW3       29.93S HX  91
6HR MIN TEMP:  83; 6HR MAX TEMP:  87;

ANGLETON       PTCLDY    76  73  91 N3        29.93S
6HR MIN TEMP:  76; 6HR MAX TEMP:  87;

*BAY CITY      NOT AVBL
PALACIOS       CLEAR     83  77  82 S8        29.92S HX  92
6HR MIN TEMP:  81; 6HR MAX TEMP:  87;

$$

TXZ229>234-239>247-130700-
TEXAS COASTAL BEND AND RIO GRANDE PLAINS

CITY           SKY/WX    TMP DP  RH WIND       PRES   REMARKS
VICTORIA       CLEAR     79  75  87 S6        29.93F
6HR MIN TEMP:  77; 6HR MAX TEMP:  89;

*BEEVILLE      CLEAR     76  76 100 CALM      29.94F
6HR MIN TEMP:  76; 6HR MAX TEMP:  90;

ROCKPORT       CLEAR     81  77  88 S7        29.93F
6HR MIN TEMP:  81; 6HR MAX TEMP:  86;

*PORT ARANSAS  MOCLDY    82  77  84 S8        29.96S HX  90
6HR MIN TEMP:  82; 6HR MAX TEMP:  86;

*PORT LAVACA   CLEAR     79  75  87 S5        29.92F
6HR MIN TEMP:  79; 6HR MAX TEMP:  90;

*INGLESIDE     CLEAR     81  77  89 S6        29.93F
CORPUS CHRISTI PTCLDY    77  77 100 CALM      29.94F
6HR MIN TEMP:  77; 6HR MAX TEMP:  88;

CORPUS NAS     MOCLDY    83  77  82 S9        29.93S HX  92
6HR MIN TEMP:  82; 6HR MAX TEMP:  87;

*ROBSTOWN      CLEAR     80  78  94 S3        29.95S
6HR MIN TEMP:  80; 6HR MAX TEMP:  90;

ALICE          CLEAR     75  74  96 NE3       29.94F FOG
6HR MIN TEMP:  75; 6HR MAX TEMP:  88;

KINGSVILLE NAS CLEAR     79  76  90 SE7       29.93F
6HR MIN TEMP:  78; 6HR MAX TEMP:  87;



USA.gov is the U.S. government's official web portal to all federal, state and local government web resources and services.